BEL26C EFKE-EBBR

Flight info

Callsign BEL26C
Flight time N/A
Altitude 34000
Route BEXUL DCT VALAK DCT RIKUM DCT TRS DCT ETPIG P605 EKRAL DCT BAKLI DCT SULIV M726 ROSOK DCT RAMAR L23 WSN N125 SILQI N872 LILSI Z310 BATAK Z311 BEKEM
Aircraft A320/M-SDE3FGHIRWY/LB1

Departure

Time N/A
Airport Kemi-Tornio Airport (EFKE)

Arrival

Time 2026-05-03 20:15
Airport Brussels Airport (EBBR)
Time Latitude Longitude Altitude Speed Heading
2026-05-03 20:15 50.90500 4.47762 120 ft 26 kts 228°
2026-05-03 20:15 50.90390 4.47610 122 ft 17 kts 217°
2026-05-03 20:15 50.90290 4.47498 120 ft 12 kts 214°
2026-05-03 20:15 50.90212 4.47454 122 ft 13 kts 154°
2026-05-03 20:16 50.90214 4.47579 118 ft 12 kts 66°
2026-05-03 20:16 50.90249 4.47699 120 ft 11 kts 65°
2026-05-03 20:16 50.90283 4.47815 118 ft 14 kts 65°
2026-05-03 20:16 50.90332 4.47987 118 ft 20 kts 65°
2026-05-03 20:17 50.90387 4.48175 118 ft 16 kts 65°
2026-05-03 20:17 50.90430 4.48327 119 ft 14 kts 65°
2026-05-03 20:17 50.90470 4.48462 119 ft 13 kts 64°
2026-05-03 20:17 50.90505 4.48584 119 ft 11 kts 66°
2026-05-03 20:18 50.90536 4.48693 118 ft 10 kts 64°
2026-05-03 20:18 50.90565 4.48789 120 ft 9 kts 65°
2026-05-03 20:18 50.90588 4.48875 117 ft 8 kts 75°
2026-05-03 20:18 50.90564 4.48922 119 ft 6 kts 167°
2026-05-03 20:19 50.90532 4.48940 118 ft 4 kts 156°
2026-05-03 20:19 50.90518 4.48950 120 ft 1 kts 155°
2026-05-03 20:19 50.90513 4.48954 120 ft 1 kts 155°
2026-05-03 20:19 50.90507 4.48958 117 ft 0 kts 155°